Regional Weather Roundup
Issued by NWS

Home | Current Version | Previous Version | Text Only | Print | Product List | Glossary Off
Versions: 1 2 3 4 5 6 7 8 9 10 11 12 13 14 15 16 17 18 19 20 21 22 23 24 25 26 27 28 29 30 31 32 33 34 35 36 37 38 39 40 41 42 43 44 45 46 47 48 49 50

406
ASUS43 KIND 311309
RWRIN

WEATHER ROUNDUP FOR INDIANA
NATIONAL WEATHER SERVICE INDIANAPOLIS IN
900 AM EDT TUE MAY 31 2016

NOTE: "FAIR" INDICATES FEW OR NO CLOUDS BELOW 12,000 FEET WITH NO
SIGNIFICANT WEATHER AND/OR OBSTRUCTIONS TO VISIBILITY.

* - STATION DOES NOT REPORT WEATHER SUCH AS PRECIPITATION OR FOG.

+ - STATION NOT QUALITY CONTROLLED BY THE NATIONAL WEATHER SERVICE.
    USE DATA WITH CAUTION...ESPECIALLY DEWPOINT AND RELATIVE
    HUMIDITY OBSERVATIONS.

INZ001>003-010>013-019-020-311400-
NORTHWEST INDIANA

CITY           SKY/WX    TMP DP  RH WIND       PRES   REMARKS
GARY /AIRPORT/ PTSUNNY   72  64  78 E8        30.01S
KNOX *+        MOSUNNY   72  46  40 E9        30.02R
LA PORTE +     MOSUNNY   74  55  51 E8        30.03S
MICHIGAN CITY+ HAZE      70  57  64 E3        30.03R VSB 3/4
MONTICELLO +   PTSUNNY   72  52  48 SE6       30.00S
RENSSELAER +   MOSUNNY   72  55  56 E10       30.01R
VALPARAISO     CLOUDY    70  57  63 E8        30.02S

$$

LMZ046-743>745-311400-
SOUTHERN LAKE MICHIGAN

STATION/POSITION TIME  TEMP    WIND        PRES    WAVE
                       AIR SEA DIR/SP/G            HT
                 (UTC) (F)     (DEG/KT/KT) (MB)    (FT)
BURNS HARBOR     1200   67      80/  7/  8 1016.6R
MICHIGAN CITY    1200   68      90/  9/ 11   N/A
5NW MICH CITY    1300   65 61  100/  6/  8   N/A     0

$$

INZ004-005-014>016-021>024-311400-
NORTH CENTRAL INDIANA

CITY           SKY/WX    TMP DP  RH WIND       PRES   REMARKS
ELKHART        SUNNY     70  57  64 E9        30.04S
GOSHEN         MOSUNNY   71  54  54 E6        30.04R
LOGANSPORT +   CLOUDY    70  55  60 E7        30.03S
PERU/GRISSOM   CLOUDY    71  57  61 E7        30.01S
ROCHESTER +    MOSUNNY   73  59  60 E7        30.03S
SOUTH BEND     MOSUNNY   70  53  54 E10       30.04R
WARSAW +       MOSUNNY   70  55  60 CALM      30.04R

$$

INZ006>009-017-018-025>027-311400-
NORTHEAST INDIANA

CITY           SKY/WX    TMP DP  RH WIND       PRES   REMARKS
ANGOLA *+        N/A     72  50  46 E6        30.04S
AUBURN +       CLOUDY    70  52  52 NE7       30.05R
FORT WAYNE     CLOUDY    68  55  63 NE9       30.04R
HUNTINGTON +   CLOUDY   N/A N/A N/A E5        30.03R

$$

INZ028-029-035-036-043>045-051>053-311400-
WEST CENTRAL INDIANA

CITY           SKY/WX    TMP DP  RH WIND       PRES   REMARKS
CRAWFORDSVL +  CLOUDY    68  62  83 S3        30.01S
GREENCASTLE +  MOSUNNY   72  68  88 CALM      30.02S
LAFAYETTE      CLOUDY    69  61  75 E3        30.00S
TERRE HAUTE    CLOUDY    70  63  78 CALM      30.00S

$$

INZ030>032-037>040-046>048-054>057-064-065-311400-
CENTRAL INDIANA

CITY           SKY/WX    TMP DP  RH WIND       PRES   REMARKS
CP ATTERBURY + MOSUNNY   70  63  78 CALM      30.02S
COLUMBUS       SUNNY     70  66  88 CALM      30.02S
FISHERS *+     CLOUDY    72  64  78 CALM      30.02R
FRANKFORT +      N/A     72  51  47 CALM      30.03S
GREENWOOD *+   CLOUDY    73  61  64 CALM      30.02S
INDIANAPOLIS   PTSUNNY   73  62  68 SW5       30.01R
-EAGLE CREEK   PTSUNNY   74  60  61 CALM      30.00S
KOKOMO *+      MOSUNNY   70  54  56 SE8       30.02S
MARION +       CLOUDY    70  55  59 E6        30.03S
SHELBYVILLE    CLOUDY    76  60  57 CALM      30.01S
ZIONSVILLE +   MOSUNNY   71  60  68 CALM      30.03R

$$

INZ033-034-041-042-049-050-058-059-311400-
EAST CENTRAL INDIANA

CITY           SKY/WX    TMP DP  RH WIND       PRES   REMARKS
MUNCIE         CLOUDY    74  56  53 E5        30.03R

$$

INZ060-061-067>069-081>083-085>088-311400-
SOUTHWEST INDIANA

CITY           SKY/WX    TMP DP  RH WIND       PRES   REMARKS
EVANSVILLE     MOSUNNY   70  62  76 NE3       29.99S
HUNTINGBURG *+ CLOUDY    72  63  73 CALM      30.00S
WASHINGTON +   PTSUNNY   70  68  94 CALM      30.00S

$$

INZ062-063-066-070>080-084-089>092-311400-
SOUTH CENTRAL AND SOUTHEAST INDIANA

CITY           SKY/WX    TMP DP  RH WIND       PRES   REMARKS
BEDFORD +      MOSUNNY   73  70  88 E3        30.01S
BLOOMINGTON    PTSUNNY   72  62  71 S3        30.01S
MADISON *+     SUNNY     73  63  68 CALM      30.04S
NORTH VERNON + SUNNY     73  68  83 CALM      30.03R
SEYMOUR +      SUNNY     73  64  73 CALM      30.02R

$$





USA.gov is the U.S. government's official web portal to all federal, state and local government web resources and services.